TimeEST,TemperatureF,Dew PointF,Humidity,Sea Level PressureIn,VisibilityMPH,Wind Direction,Wind SpeedMPH,Gust SpeedMPH,PrecipitationIn,Events,Conditions,WindDirDegrees,DateUTC
12:15 AM,43.3,27.5,54,29.96,10.0,SSW,11.5,17.3,N/A,,Mostly Cloudy,210,2013-02-05 05:15:00
12:35 AM,43.7,28.0,54,29.96,10.0,SSW,9.2,-,N/A,,Overcast,210,2013-02-05 05:35:00
12:55 AM,43.7,27.9,54,29.96,10.0,SW,10.4,16.1,N/A,,Overcast,220,2013-02-05 05:55:00
1:15 AM,43.7,28.4,55,29.95,10.0,SSW,6.9,-,N/A,,Overcast,210,2013-02-05 06:15:00
1:35 AM,43.9,28.4,55,29.95,10.0,SSW,9.2,-,N/A,,Overcast,210,2013-02-05 06:35:00
1:55 AM,44.2,28.9,55,29.94,10.0,SW,9.2,16.1,N/A,,Overcast,220,2013-02-05 06:55:00
2:15 AM,44.4,29.1,55,29.94,10.0,SW,8.1,-,N/A,,Overcast,230,2013-02-05 07:15:00
2:35 AM,44.2,29.3,56,29.94,10.0,SW,8.1,-,N/A,,Overcast,230,2013-02-05 07:35:00
2:55 AM,44.1,29.3,56,29.93,10.0,SW,5.8,-,N/A,,Overcast,220,2013-02-05 07:55:00
3:15 AM,43.9,29.7,57,29.93,10.0,SW,6.9,-,N/A,,Overcast,230,2013-02-05 08:15:00
3:35 AM,43.9,29.7,57,29.93,10.0,SW,6.9,-,N/A,,Overcast,220,2013-02-05 08:35:00
3:55 AM,43.7,29.8,58,29.92,10.0,SW,5.8,-,N/A,,Overcast,220,2013-02-05 08:55:00
4:15 AM,43.9,29.7,57,29.92,10.0,SW,4.6,-,N/A,,Overcast,220,2013-02-05 09:15:00
4:35 AM,43.7,29.8,58,29.92,10.0,SW,4.6,-,N/A,,Overcast,230,2013-02-05 09:35:00
4:55 AM,43.7,30.2,59,29.92,10.0,SW,5.8,-,N/A,,Overcast,220,2013-02-05 09:55:00
5:15 AM,43.3,30.4,60,29.91,10.0,SSW,4.6,-,N/A,,Overcast,210,2013-02-05 10:15:00
5:35 AM,43.2,30.2,60,29.91,10.0,SSW,6.9,-,N/A,,Overcast,210,2013-02-05 10:35:00
5:55 AM,43.0,30.2,61,29.92,10.0,SSW,4.6,-,N/A,,Mostly Cloudy,200,2013-02-05 10:55:00
6:15 AM,42.4,30.6,63,29.92,10.0,Calm,Calm,-,N/A,,Scattered Clouds,0,2013-02-05 11:15:00
6:35 AM,42.1,30.9,65,29.92,10.0,SSW,3.5,-,N/A,,Scattered Clouds,200,2013-02-05 11:35:00
6:55 AM,42.3,30.9,64,29.93,10.0,SSW,4.6,-,N/A,,Scattered Clouds,210,2013-02-05 11:55:00
7:15 AM,42.4,31.1,64,29.93,10.0,SSW,4.6,-,N/A,,Mostly Cloudy,200,2013-02-05 12:15:00
7:35 AM,42.4,31.3,65,29.92,10.0,SSE,5.8,-,N/A,,Mostly Cloudy,160,2013-02-05 12:35:00
7:55 AM,43.0,31.1,63,29.94,10.0,SSW,4.6,-,N/A,,Scattered Clouds,210,2013-02-05 12:55:00
8:15 AM,43.2,31.5,63,29.94,10.0,SW,4.6,-,N/A,,Mostly Cloudy,220,2013-02-05 13:15:00
8:35 AM,43.2,31.8,64,29.95,10.0,Calm,Calm,-,N/A,,Overcast,0,2013-02-05 13:35:00
8:55 AM,43.9,32.0,63,29.95,10.0,SSW,4.6,-,N/A,,Overcast,210,2013-02-05 13:55:00
9:15 AM,44.1,32.0,63,29.94,10.0,SW,3.5,-,N/A,,Overcast,220,2013-02-05 14:15:00
9:35 AM,44.6,32.4,62,29.95,10.0,SSW,5.8,-,N/A,,Overcast,210,2013-02-05 14:35:00
9:55 AM,45.1,32.2,60,29.94,10.0,South,4.6,-,N/A,,Overcast,190,2013-02-05 14:55:00
10:15 AM,45.3,32.9,62,29.95,10.0,SSW,6.9,-,N/A,,Overcast,200,2013-02-05 15:15:00
10:35 AM,46.4,33.1,60,29.94,10.0,SSW,5.8,-,N/A,,Overcast,200,2013-02-05 15:35:00
10:55 AM,47.1,33.1,58,29.94,10.0,SW,6.9,-,N/A,,Mostly Cloudy,220,2013-02-05 15:55:00
11:15 AM,48.2,33.1,56,29.94,10.0,SW,9.2,-,N/A,,Mostly Cloudy,230,2013-02-05 16:15:00
11:35 AM,48.2,33.3,56,29.94,10.0,SW,6.9,-,N/A,,Mostly Cloudy,220,2013-02-05 16:35:00
11:55 AM,49.1,33.6,55,29.93,10.0,SW,6.9,-,N/A,,Overcast,220,2013-02-05 16:55:00
12:15 PM,49.3,33.4,54,29.92,10.0,SW,5.8,-,N/A,,Mostly Cloudy,220,2013-02-05 17:15:00
12:35 PM,49.3,33.8,55,29.92,10.0,SSW,4.6,-,N/A,,Overcast,200,2013-02-05 17:35:00
12:55 PM,50.0,34.0,54,29.90,10.0,SSW,5.8,-,N/A,,Overcast,210,2013-02-05 17:55:00
1:15 PM,49.3,33.8,55,29.89,10.0,South,3.5,-,N/A,,Overcast,170,2013-02-05 18:15:00
1:35 PM,49.6,34.2,55,29.89,10.0,SSW,5.8,-,N/A,,Overcast,200,2013-02-05 18:35:00
1:55 PM,50.0,35.1,57,29.88,10.0,South,6.9,-,N/A,,Overcast,190,2013-02-05 18:55:00
2:15 PM,50.2,35.4,57,29.88,10.0,South,4.6,-,N/A,,Overcast,180,2013-02-05 19:15:00
2:35 PM,51.4,35.4,54,29.86,10.0,South,3.5,-,N/A,,Overcast,180,2013-02-05 19:35:00
2:55 PM,53.2,35.6,51,29.86,10.0,South,5.8,-,N/A,,Overcast,190,2013-02-05 19:55:00
3:15 PM,54.3,36.1,50,29.86,10.0,SSW,5.8,-,N/A,,Overcast,210,2013-02-05 20:15:00
3:35 PM,53.8,36.0,51,29.86,10.0,South,5.8,-,N/A,,Scattered Clouds,180,2013-02-05 20:35:00
3:55 PM,54.1,36.1,51,29.86,10.0,SSW,6.9,-,N/A,,Clear,200,2013-02-05 20:55:00
4:15 PM,53.6,36.3,52,29.86,10.0,SSW,5.8,-,N/A,,Clear,200,2013-02-05 21:15:00
4:35 PM,53.4,36.3,52,29.86,10.0,SW,4.6,-,N/A,,Clear,220,2013-02-05 21:35:00
4:55 PM,52.7,36.7,55,29.87,10.0,SW,5.8,-,N/A,,Scattered Clouds,220,2013-02-05 21:55:00
5:15 PM,51.8,36.7,56,29.87,10.0,SW,3.5,-,N/A,,Scattered Clouds,220,2013-02-05 22:15:00
5:35 PM,50.9,37.0,59,29.87,10.0,Calm,Calm,-,N/A,,Scattered Clouds,0,2013-02-05 22:35:00
5:55 PM,49.6,36.9,61,29.87,10.0,Calm,Calm,-,N/A,,Overcast,0,2013-02-05 22:55:00
6:15 PM,50.9,37.0,59,29.88,10.0,SSW,3.5,-,N/A,,Overcast,200,2013-02-05 23:15:00
6:35 PM,50.4,37.4,61,29.88,10.0,SSW,4.6,-,N/A,,Mostly Cloudy,210,2013-02-05 23:35:00
6:55 PM,51.8,37.4,58,29.89,10.0,SSW,6.9,-,N/A,,Mostly Cloudy,210,2013-02-05 23:55:00
7:15 PM,49.1,37.4,64,29.89,10.0,SSW,3.5,-,N/A,,Scattered Clouds,200,2013-02-06 00:15:00
7:35 PM,48.2,37.6,67,29.89,10.0,South,3.5,-,N/A,,Clear,190,2013-02-06 00:35:00
7:55 PM,46.4,37.2,70,29.90,10.0,Calm,Calm,-,N/A,,Clear,0,2013-02-06 00:55:00
8:15 PM,44.6,36.5,73,29.90,10.0,Calm,Calm,-,N/A,,Clear,0,2013-02-06 01:15:00
8:35 PM,41.4,35.4,79,29.91,10.0,Calm,Calm,-,N/A,,Clear,0,2013-02-06 01:35:00
8:55 PM,40.1,36.0,85,29.91,10.0,Calm,Calm,-,N/A,,Clear,0,2013-02-06 01:55:00
9:35 PM,43.9,37.2,77,29.92,10.0,Calm,Calm,-,N/A,,Clear,0,2013-02-06 02:35:00
9:55 PM,35.6,32.0,87,29.93,10.0,Calm,Calm,-,N/A,,Clear,0,2013-02-06 02:55:00
10:15 PM,37.0,35.2,93,29.93,10.0,Calm,Calm,-,N/A,,Clear,0,2013-02-06 03:15:00
10:35 PM,40.3,36.5,86,29.93,10.0,Calm,Calm,-,N/A,,Clear,0,2013-02-06 03:35:00
10:55 PM,40.3,36.3,86,29.93,10.0,Calm,Calm,-,N/A,,Clear,0,2013-02-06 03:55:00
11:15 PM,40.1,36.0,85,29.93,10.0,Calm,Calm,-,N/A,,Clear,0,2013-02-06 04:15:00
11:35 PM,41.2,37.2,86,29.94,10.0,Calm,Calm,-,N/A,,Clear,0,2013-02-06 04:35:00
11:55 PM,42.8,36.3,78,29.95,10.0,Calm,Calm,-,N/A,,Clear,0,2013-02-06 04:55:00